Theta_e
312 312 311 310 309 309 308 308 308 307 307 306 306 307 307 307 307 309 312 316 318 319 318 313 309 309 311 315 313 315 316 315 319 320 322 328 331 333 334 335 337 336 334 333 324 318 318 317 318 318 319 321 321 322 322 322 321 321 327 331 328 328 330 328 325 320 320 325 318 316 320 321 323 320 321 324 324 325 328 330 329 330 330 329 328 329 332 332
312 312 312 311 309 308 309 308 308 307 307 306 306 306 307 307 307 308 310 314 317 318 319 315 310 309 309 312 312 314 315 313 315 317 323 328 330 332 334 334 336 335 333 328 321 319 318 317 318 318 320 322 321 321 322 321 319 322 330 328 328 333 328 321 321 316 317 321 317 317 319 320 322 320 322 326 326 326 329 329 326 328 329 329 327 329 332 332
312 312 312 311 310 309 309 308 308 307 307 306 305 306 306 307 307 307 309 312 316 318 319 318 313 309 308 310 312 313 315 316 316 317 324 328 330 332 333 333 335 333 329 323 319 318 319 318 318 318 320 322 322 322 321 321 320 321 326 328 331 330 321 315 316 316 317 318 317 318 319 319 320 320 322 324 325 325 327 327 325 325 326 326 326 327 332 332
312 312 312 312 311 310 309 308 308 307 306 306 305 306 306 306 306 307 308 309 314 317 318 319 316 311 308 309 312 313 316 318 319 318 322 327 328 331 331 332 334 333 328 323 318 316 318 317 317 318 320 323 322 322 322 322 322 320 323 329 330 322 318 317 315 315 316 316 317 318 318 319 319 321 322 321 326 327 325 324 324 324 322 323 324 326 329 331
312 312 312 312 311 310 309 308 308 307 306 306 305 305 305 306 306 306 307 308 311 315 317 319 318 314 309 310 311 314 317 319 321 320 321 325 326 328 330 332 334 334 330 323 318 315 317 316 317 320 321 324 323 323 323 323 323 321 321 323 321 316 317 317 313 315 316 316 317 317 319 320 319 320 321 321 327 328 323 322 322 322 321 321 321 323 327 329
313 312 312 312 312 311 309 309 308 308 307 306 306 305 305 306 306 306 306 307 310 313 316 318 319 315 311 312 312 313 317 320 324 325 324 324 325 327 330 332 333 334 329 322 316 315 316 316 319 322 322 325 325 325 325 323 323 325 323 319 317 315 316 315 313 315 315 316 317 316 319 319 317 319 319 320 323 323 321 321 321 321 321 319 319 321 323 326
312 312 312 312 312 311 310 309 309 308 307 306 306 305 305 305 305 306 306 307 309 312 315 318 318 317 315 315 313 314 316 318 322 325 326 326 327 329 330 331 332 333 329 321 316 316 316 317 320 322 324 327 325 325 325 323 322 326 327 321 318 317 316 315 313 314 315 316 317 317 318 317 318 320 317 318 321 321 320 319 319 320 320 319 320 321 321 323
312 312 312 312 312 311 310 310 309 308 307 307 306 305 305 305 305 306 305 306 308 311 314 317 318 318 317 316 315 315 316 316 317 321 324 325 327 328 330 331 332 333 330 323 317 316 317 318 321 322 325 327 325 325 324 323 323 324 326 322 319 319 316 314 314 315 314 315 316 316 316 315 317 317 315 317 321 320 320 320 319 319 319 320 321 321 322 323
311 311 312 311 311 311 310 310 309 308 307 307 306 305 305 304 305 305 305 306 307 310 313 316 318 320 320 318 316 316 316 315 315 317 320 322 322 324 325 328 331 332 329 323 317 316 318 318 320 323 325 325 325 325 323 325 328 324 324 322 320 319 316 314 314 314 315 315 316 317 317 316 316 316 316 318 320 319 319 319 318 319 319 320 320 321 322 323
311 311 311 311 311 311 310 310 309 308 308 307 306 305 305 304 305 305 305 305 307 309 311 315 316 319 321 319 318 318 316 314 316 316 317 318 318 318 320 322 327 330 328 323 318 317 318 318 320 322 324 325 325 324 323 326 330 325 323 323 321 321 318 315 314 314 316 317 316 319 321 318 316 316 318 319 318 318 318 318 317 318 319 319 320 320 321 323
310 310 310 311 311 310 310 310 309 308 308 307 305 305 304 304 305 305 305 305 306 308 310 314 316 317 320 318 317 317 315 313 316 316 317 318 317 316 317 319 321 326 328 323 318 317 318 319 320 323 326 326 325 324 323 325 328 325 324 324 323 322 321 317 315 315 315 317 316 318 320 318 317 317 319 319 318 318 317 317 317 317 318 318 318 320 321 322
311 310 310 310 310 309 309 309 309 308 307 307 305 305 304 304 305 305 305 304 305 307 310 313 316 317 319 319 317 317 315 313 313 314 315 317 317 315 316 317 316 320 326 322 317 317 318 320 320 323 328 327 326 325 324 325 326 324 325 328 325 322 325 321 316 316 315 317 317 317 320 319 318 318 318 318 318 319 319 318 317 316 317 317 318 319 320 320
311 310 310 310 310 309 309 309 309 308 307 307 306 304 304 304 304 305 305 305 305 307 309 312 315 316 319 320 317 317 317 313 312 314 314 317 317 316 316 318 318 320 325 322 318 318 317 320 322 322 326 326 325 327 326 324 324 325 324 329 329 326 330 325 319 318 315 317 318 318 321 322 321 319 318 319 319 319 319 319 319 318 317 317 317 318 318 319
310 310 310 310 310 310 309 309 309 308 307 307 306 304 305 304 304 305 305 305 306 307 309 311 314 316 319 320 318 319 318 314 313 314 315 317 317 318 318 319 321 322 326 323 319 318 316 318 323 324 325 326 324 325 326 324 327 330 326 328 330 332 336 328 319 318 317 317 317 320 322 322 325 324 320 321 320 320 320 320 320 319 318 317 317 317 317 318
310 311 310 309 310 310 309 309 308 308 307 307 306 304 305 304 304 305 305 305 307 308 309 311 314 316 318 320 320 320 320 318 317 315 314 317 317 319 320 320 322 323 325 325 320 318 317 319 323 325 324 324 325 327 327 326 328 330 331 331 330 333 337 330 319 317 320 320 317 321 324 325 327 324 323 324 322 320 319 320 322 321 320 318 317 318 317 318
311 310 309 309 310 309 309 309 308 308 307 306 306 304 304 304 304 305 305 306 307 309 311 312 314 316 318 319 320 321 321 320 319 318 316 316 316 318 319 320 322 324 325 326 323 319 318 321 324 325 324 323 326 329 329 329 328 327 330 334 331 332 333 331 323 317 320 322 318 321 325 328 326 318 320 323 322 321 318 319 320 320 321 319 318 318 317 318
310 309 309 309 309 309 308 308 308 308 307 306 305 304 304 304 304 305 306 307 309 310 311 312 314 315 318 318 319 321 321 321 320 318 317 316 317 317 318 319 321 325 326 324 323 320 320 323 324 325 324 324 326 328 331 333 331 327 328 331 331 332 330 332 331 320 319 323 322 322 323 326 325 317 318 320 321 322 319 319 320 320 321 320 319 318 318 318
309 310 309 309 309 309 308 308 308 307 306 306 305 304 304 304 305 306 307 308 310 311 311 313 315 317 319 318 319 320 319 320 319 317 317 317 317 317 318 319 321 325 323 320 321 321 322 322 322 326 326 326 326 327 332 333 331 328 328 330 331 332 330 331 333 323 320 324 325 324 322 323 324 320 320 320 320 321 320 321 321 320 320 320 320 319 319 319
309 310 309 309 309 309 308 308 308 307 306 305 304 305 305 306 307 307 307 309 311 314 313 314 315 318 319 317 318 321 319 320 319 317 318 317 318 317 318 320 321 322 321 320 321 321 322 322 323 326 326 326 326 326 330 330 329 328 327 330 331 333 330 328 330 323 320 324 324 325 324 322 323 321 321 322 320 319 320 320 320 320 319 319 320 320 321 320
309 309 308 309 309 308 308 308 307 307 306 305 306 307 308 308 309 309 308 310 311 312 313 313 314 315 318 317 316 320 322 320 319 318 318 318 318 318 319 320 320 321 320 321 321 321 322 323 324 324 324 325 326 326 329 329 329 327 328 331 331 332 331 328 328 322 318 323 325 324 324 323 323 322 321 321 319 318 318 319 319 320 320 319 320 320 321 321
309 309 309 309 309 308 308 307 307 306 305 305 306 308 310 309 309 309 309 309 309 309 312 314 314 313 316 319 317 319 321 320 319 318 318 317 317 318 320 320 320 321 321 320 321 322 322 323 323 322 322 324 325 326 328 329 329 327 328 330 330 331 331 328 327 321 317 322 327 324 324 324 322 322 321 319 318 317 317 318 318 319 320 321 321 322 322 322
308 308 308 308 308 308 307 307 306 305 306 306 306 308 309 307 307 308 308 310 309 308 311 314 315 315 315 319 320 320 321 321 320 319 318 317 317 319 320 321 322 322 320 320 322 324 323 323 321 320 322 323 324 325 327 329 329 328 328 329 330 330 329 327 323 318 316 323 328 325 323 322 321 321 320 317 317 318 318 319 319 320 320 321 322 323 323 324
308 308 308 307 307 307 307 307 306 306 307 307 306 306 307 305 307 309 308 310 311 310 311 313 315 316 315 316 320 321 321 321 321 320 319 318 318 319 320 321 322 322 321 321 323 325 324 323 320 320 323 324 324 324 326 328 328 329 329 329 330 329 329 332 326 317 316 321 322 321 321 321 320 321 319 317 316 317 318 318 319 319 319 321 322 323 323 324
308 307 307 307 306 307 307 306 306 306 307 306 305 305 306 306 307 310 309 310 312 312 311 311 313 316 317 316 318 320 321 321 321 320 319 318 318 319 320 321 322 322 321 321 322 324 324 323 320 321 324 324 324 324 325 327 327 327 328 328 330 330 329 329 326 319 317 320 318 319 325 326 325 327 324 320 317 316 316 316 317 318 319 321 321 320 322 323
308 308 307 306 306 306 306 306 306 306 307 306 305 304 306 307 307 310 311 310 311 312 311 311 312 314 316 316 317 319 321 321 321 321 319 318 318 320 321 320 321 322 321 321 322 323 324 322 321 323 324 324 325 325 325 327 328 329 328 327 329 331 327 322 322 322 324 328 322 320 330 335 333 333 329 325 323 320 316 313 315 317 319 319 319 320 322 323
307 307 307 306 306 306 306 308 307 306 306 306 305 305 306 307 307 309 311 310 311 312 313 312 312 313 314 317 318 319 320 320 321 321 319 318 318 319 321 320 320 321 321 321 322 323 323 322 323 324 324 326 325 325 326 326 329 330 329 329 330 330 327 322 323 326 329 331 323 318 329 337 333 331 333 332 330 326 319 315 314 316 318 317 318 322 323 323
307 307 307 306 306 306 307 308 306 306 307 306 305 305 306 307 308 310 310 311 311 312 314 313 312 313 314 317 319 319 320 320 320 321 320 320 319 319 322 321 320 320 320 321 323 324 324 323 324 324 325 326 326 326 326 325 329 331 328 329 330 329 328 324 324 328 327 325 321 318 324 332 330 329 332 331 329 327 324 321 317 314 316 318 317 320 323 324
307 306 306 306 306 305 306 306 306 306 306 306 305 306 307 307 308 309 310 311 311 312 314 313 313 314 314 317 319 318 320 321 321 322 320 320 320 320 321 321 319 320 320 322 324 325 324 324 324 325 325 325 326 327 325 325 329 328 325 328 329 328 328 324 324 326 324 324 326 321 320 329 333 330 327 324 326 328 326 325 321 316 317 318 319 321 322 323
306 306 305 305 305 305 305 305 305 305 305 306 307 307 308 308 309 309 310 312 312 312 313 314 314 315 316 318 319 318 319 320 321 321 320 320 320 320 321 320 318 319 320 321 324 325 324 324 324 324 326 326 327 327 325 327 329 322 321 324 325 325 325 322 324 326 324 327 330 324 321 328 333 331 327 324 327 329 326 325 322 317 317 319 320 321 322 323
305 305 305 305 305 305 305 304 304 304 306 307 307 308 308 308 309 310 311 312 313 313 314 314 314 315 317 319 319 319 318 319 320 320 320 320 320 319 320 319 318 319 320 321 323 324 322 322 323 324 325 324 325 325 324 326 325 320 323 326 325 326 327 326 327 327 327 329 330 325 324 328 332 331 330 328 327 328 326 327 327 320 318 319 320 320 321 322
305 305 305 305 305 305 305 305 305 305 305 306 307 309 309 308 309 310 311 311 314 317 316 314 314 316 319 319 320 320 318 319 320 320 320 320 320 320 320 320 320 320 321 321 322 322 322 323 324 324 322 322 324 325 323 321 321 324 330 330 328 328 327 328 328 326 328 331 329 324 323 327 332 332 332 330 327 327 327 328 332 326 318 319 319 319 319 320
304 305 305 304 304 304 305 305 305 305 306 307 308 309 309 309 309 310 311 311 313 317 316 315 316 318 318 319 320 320 319 320 320 320 321 321 320 320 321 321 320 320 322 320 321 323 323 324 324 323 322 322 325 326 323 321 323 329 330 329 331 330 328 329 329 327 330 330 324 320 322 326 328 328 329 329 326 326 322 319 323 321 316 318 321 319 319 319
304 304 304 304 304 305 305 304 305 306 307 308 308 308 308 309 309 310 311 311 313 316 316 315 316 317 318 318 319 320 320 321 320 320 321 321 321 320 320 319 318 321 322 319 320 324 324 324 324 324 323 323 324 326 325 324 326 328 327 328 332 331 331 333 330 329 332 328 321 319 322 327 329 327 325 326 324 323 319 315 316 317 316 319 321 321 321 320
303 304 304 304 304 304 305 305 305 307 309 309 308 308 309 310 311 310 310 311 314 316 316 316 316 317 317 317 318 319 321 321 320 320 321 321 321 320 320 319 318 321 322 319 320 323 326 326 324 323 324 324 324 325 325 325 325 326 327 329 330 330 334 335 332 333 332 326 321 320 324 331 333 329 323 319 318 317 317 317 316 316 317 318 318 319 321 321
303 304 304 305 305 305 305 305 306 307 309 309 308 309 309 310 311 310 310 312 313 315 317 315 315 317 317 316 317 319 320 321 320 321 321 321 321 320 320 319 319 321 322 321 320 321 325 328 324 322 322 323 324 324 323 325 326 326 328 331 329 329 333 331 327 329 329 328 325 322 325 329 329 326 321 318 318 316 316 317 315 316 318 317 317 318 319 321
304 304 305 306 305 305 305 306 306 308 308 308 309 310 309 309 311 310 310 313 313 315 317 316 315 317 317 316 317 319 319 320 320 321 321 321 321 320 319 319 319 321 323 323 322 322 325 326 323 321 322 323 323 323 322 325 327 326 328 330 327 327 331 329 323 322 325 330 330 325 326 329 328 327 324 324 326 323 320 317 313 315 318 316 317 319 319 320
304 304 305 306 305 304 306 307 308 309 308 308 309 310 309 309 311 311 310 313 315 316 316 316 315 316 316 316 317 319 319 319 320 322 322 321 322 321 319 319 319 320 322 323 324 324 324 324 322 322 325 323 320 322 322 321 323 326 328 326 324 325 328 329 327 325 326 330 331 327 327 330 332 331 329 326 325 326 325 321 314 313 314 314 317 319 319 319
304 305 306 306 304 304 306 307 309 309 308 308 309 309 309 308 309 312 312 312 316 317 316 316 316 315 315 316 317 318 319 318 319 321 322 322 322 320 318 319 319 319 321 321 323 324 324 325 323 322 324 322 319 322 324 321 319 322 325 324 326 329 328 326 328 330 329 331 332 326 321 326 329 328 328 326 324 328 329 328 327 321 313 314 317 319 319 319
305 305 306 306 304 305 306 308 309 308 308 309 310 309 309 308 309 310 311 312 316 317 316 316 315 315 315 314 316 318 319 319 318 319 321 322 323 320 318 319 320 319 320 320 323 323 323 326 325 322 322 322 321 323 326 325 320 320 323 324 328 331 329 328 329 329 330 330 332 328 322 326 328 324 327 327 324 327 327 327 332 325 314 314 318 319 319 319
305 306 307 307 306 306 307 308 309 309 308 309 310 309 309 309 309 308 308 312 316 315 316 319 316 315 316 315 315 318 319 319 318 318 320 322 322 320 318 319 320 320 320 320 322 322 322 326 326 321 320 322 323 324 325 326 322 322 325 326 327 326 326 330 329 327 329 330 331 332 328 327 326 322 323 325 322 323 323 324 325 319 315 317 318 318 319 318
305 306 307 308 309 308 308 309 309 308 309 309 309 309 309 309 311 309 306 308 313 311 312 317 317 316 316 315 316 318 319 319 319 319 321 321 321 321 320 319 319 320 320 321 322 322 323 324 323 321 322 324 325 324 325 325 322 323 325 324 325 326 325 330 330 326 326 326 327 329 327 327 327 321 318 321 323 321 319 319 319 315 315 318 318 318 318 318
307 307 307 308 310 309 309 309 308 307 309 309 308 308 309 309 311 311 307 307 310 309 308 311 316 319 318 317 317 318 319 320 320 320 322 321 320 321 320 319 319 320 321 323 323 321 322 324 322 321 322 323 321 320 323 325 323 323 325 324 326 326 325 329 330 327 325 324 323 324 325 327 326 322 319 318 318 315 312 312 312 312 314 316 317 317 317 317
307 306 306 309 310 309 309 309 307 307 308 308 307 308 308 310 311 311 310 309 308 309 311 311 312 316 318 318 319 319 318 319 320 320 322 321 320 320 320 319 320 320 320 323 322 319 322 324 322 322 321 319 319 320 321 322 323 324 324 324 325 325 325 327 329 328 327 326 324 325 328 324 320 323 317 310 309 310 309 309 309 311 314 315 316 316 317 317
306 305 306 309 310 309 309 309 308 308 306 306 308 308 306 308 310 310 312 312 309 310 314 313 310 312 314 314 318 320 318 319 320 320 321 322 320 319 319 319 320 320 320 322 321 320 322 323 322 323 323 322 323 325 324 322 322 323 323 323 323 324 324 325 325 325 326 327 325 327 330 323 319 323 317 310 314 314 309 308 309 310 312 314 315 315 316 317
305 306 306 308 310 310 308 306 307 308 306 307 309 308 308 307 307 308 310 311 309 309 312 311 309 311 312 313 318 320 318 318 320 321 321 322 321 320 319 319 320 320 320 320 319 320 324 323 322 324 325 326 327 328 326 323 322 323 323 322 323 324 324 324 324 323 325 327 326 326 328 322 318 320 318 318 324 321 312 309 309 310 312 314 315 316 317 318
306 306 305 305 307 309 306 303 305 307 307 308 309 308 309 309 306 306 308 309 308 308 309 308 308 312 313 314 318 319 317 317 318 319 320 321 322 321 319 319 320 319 320 319 317 320 325 323 320 323 324 325 327 327 325 323 323 323 323 323 323 323 322 323 325 324 325 325 324 325 325 321 319 321 323 326 327 326 321 313 310 312 312 313 315 316 317 317
306 306 304 304 306 306 304 303 305 307 308 309 309 308 309 309 308 307 307 307 307 307 308 307 308 313 314 313 316 317 316 316 318 319 320 320 321 322 319 319 320 319 319 318 317 320 325 323 320 322 323 322 325 326 325 323 323 323 323 323 322 323 322 323 324 324 324 324 324 324 323 322 325 331 333 332 329 328 323 313 310 313 313 313 315 316 316 315
306 305 303 305 307 306 305 304 306 308 308 308 308 308 308 309 309 308 307 307 306 306 309 309 308 311 312 313 316 315 314 316 318 318 320 320 322 322 321 320 320 319 318 318 317 318 322 322 321 321 321 321 325 328 326 323 323 323 323 323 322 322 322 323 323 322 323 324 323 323 323 322 326 332 334 330 324 320 317 313 311 313 314 314 315 315 316 316
303 303 302 304 306 307 307 306 306 308 308 308 307 308 309 309 308 307 306 307 307 306 309 311 310 310 311 313 315 314 313 317 318 316 317 320 321 320 320 321 320 318 319 320 318 318 320 321 321 321 321 321 325 328 326 323 323 323 323 322 322 322 322 322 323 322 322 323 321 323 324 322 321 324 326 323 317 313 313 313 313 314 315 315 315 315 316 316
303 304 303 303 304 306 306 306 307 307 307 308 308 307 309 309 308 307 306 307 309 308 308 311 310 309 310 312 314 314 313 316 318 316 315 318 321 320 320 321 320 319 320 320 319 318 320 321 321 320 321 321 322 325 325 324 324 323 323 323 322 322 321 321 322 322 322 322 321 321 323 322 319 319 320 318 315 313 313 314 314 315 315 315 316 316 316 316
304 305 305 304 305 305 306 307 307 308 307 307 308 307 308 308 306 307 306 305 307 308 309 310 308 307 309 310 313 314 312 313 315 315 314 316 318 317 317 319 318 318 318 318 319 319 320 321 321 320 321 321 321 323 323 323 323 323 322 322 322 321 322 321 321 321 321 322 322 321 321 320 319 318 317 317 316 316 314 313 314 316 316 316 317 316 316 316
305 305 305 306 305 305 305 306 307 308 307 307 307 307 307 307 305 307 307 305 305 306 307 307 307 307 308 309 310 311 311 310 311 310 311 313 312 311 312 313 314 316 317 318 319 319 319 320 320 320 321 321 321 322 322 322 323 323 322 321 321 321 321 321 321 321 320 321 321 321 321 319 319 319 319 318 318 318 316 315 315 315 316 317 317 317 317 317
Wind_Speed
37 37 36 35 34 33 32 31 30 29 28 28 26 24 26 27 28 28 27 25 24 23 20 21 31 40 42 44 42 37 30 27 29 28 27 26 20 19 23 24 28 31 30 29 27 24 20 21 25 23 18 14 12 12 11 8 9 7 3 2 3 3 4 5 7 7 4 3 7 10 14 11 5 9 10 7 6 7 12 14 12 14 17 12 7 6 6 11
39 37 36 35 34 34 33 32 31 30 29 29 27 25 26 28 29 29 28 26 25 22 20 19 25 36 43 45 43 39 35 31 32 36 33 24 17 18 23 26 30 31 30 28 27 26 23 23 26 23 19 15 10 12 11 9 10 5 3 2 4 4 4 6 9 9 5 3 9 11 13 12 7 12 12 5 5 7 8 11 12 13 16 16 12 10 9 12
40 39 37 36 35 34 33 33 31 30 30 29 28 27 26 29 29 30 29 26 25 23 21 19 20 30 41 45 43 39 34 28 32 41 36 23 17 18 21 25 28 29 29 28 26 25 24 25 26 23 20 14 10 11 10 8 8 3 4 3 6 5 4 5 8 9 7 4 9 13 12 11 8 13 14 6 5 5 8 11 12 15 17 16 14 13 12 14
40 39 38 36 35 35 34 33 32 31 30 29 29 27 27 29 30 30 29 27 25 23 21 20 19 24 34 39 39 36 26 19 29 41 37 26 19 18 21 22 25 31 31 28 25 23 23 23 24 23 18 11 9 12 9 9 8 4 5 4 5 6 3 5 7 7 8 6 10 13 9 8 9 13 13 9 5 4 13 19 18 17 16 16 16 15 15 16
41 40 38 36 35 35 34 34 32 31 30 30 29 27 28 28 30 31 29 28 26 25 21 20 20 20 28 35 36 32 17 8 17 29 31 29 22 19 23 21 24 30 30 28 25 22 22 22 23 22 15 8 8 9 8 11 10 5 5 3 4 7 3 4 5 5 8 8 9 12 8 8 11 11 13 12 7 8 14 19 20 19 14 13 15 16 17 19
42 40 38 37 35 34 34 34 33 31 30 30 29 28 28 29 31 30 30 29 26 26 22 20 20 19 25 32 35 33 22 8 3 7 17 25 22 19 22 21 22 27 30 31 24 18 20 24 23 19 11 6 9 8 7 14 12 4 4 3 5 7 3 3 5 5 8 9 10 11 8 10 11 8 12 15 16 15 10 9 12 16 15 12 14 15 17 19
43 40 39 38 35 34 34 34 33 32 30 30 29 28 28 30 31 30 31 29 27 27 23 21 19 20 26 28 30 30 30 28 14 2 1 9 14 15 17 18 22 27 32 33 23 14 19 25 23 19 11 5 9 8 8 13 11 5 3 4 7 7 3 2 5 4 6 9 10 10 7 9 12 7 8 16 25 22 13 9 8 12 16 14 13 14 15 16
44 42 40 38 36 35 34 34 33 32 31 30 29 28 28 30 31 30 31 29 28 26 24 23 18 23 30 31 32 27 32 50 43 21 4 3 6 6 8 13 20 25 30 34 26 16 19 26 25 20 11 5 9 9 10 9 4 5 4 4 7 5 3 3 5 5 4 6 7 8 6 7 12 7 5 16 24 20 18 16 12 10 15 17 15 14 15 16
44 43 41 39 38 36 35 34 33 32 31 30 29 29 28 29 30 30 31 30 29 26 26 24 18 24 32 34 32 23 41 66 58 43 29 17 9 4 4 6 16 23 29 35 30 20 21 27 28 22 11 8 11 9 13 10 2 8 8 6 7 4 4 4 6 5 5 7 7 7 5 4 9 6 7 19 22 16 16 16 14 12 13 16 16 16 16 17
45 44 42 40 39 37 36 34 34 32 32 31 29 29 28 29 30 29 30 30 29 27 27 24 20 24 29 32 25 16 49 67 57 53 45 37 30 21 16 8 9 19 30 35 31 24 22 26 29 25 13 8 9 7 12 9 3 9 11 7 6 4 4 4 6 6 4 5 6 6 5 4 7 5 7 14 16 15 16 15 15 15 15 16 16 17 17 18
46 45 43 42 40 38 36 35 34 33 32 31 30 30 29 29 30 29 29 30 29 28 28 26 22 22 27 32 26 21 44 55 56 61 53 45 39 33 29 20 14 16 27 34 30 26 23 23 26 22 9 6 8 6 9 9 3 8 12 7 2 2 2 3 5 6 5 3 4 4 3 5 5 4 8 12 10 11 15 15 17 18 19 18 17 18 18 19
46 46 44 42 41 38 37 35 34 33 32 32 31 30 29 30 30 28 28 28 29 29 28 27 23 22 27 34 37 35 36 41 49 54 56 53 43 37 34 29 25 21 23 31 30 30 25 18 23 20 7 7 9 4 7 11 6 8 11 5 1 3 2 6 5 5 6 2 3 3 3 8 6 6 12 16 15 13 13 14 17 20 21 21 20 20 21 21
46 46 44 41 40 39 37 35 34 33 33 31 30 30 29 31 30 27 28 27 29 30 27 27 24 24 27 29 40 42 31 35 42 42 51 53 39 32 28 24 23 21 22 29 28 29 29 16 19 25 13 10 10 5 7 8 7 7 5 3 2 3 3 8 7 4 6 3 5 6 3 9 7 10 17 20 21 18 17 17 19 20 22 23 22 23 23 23
47 46 45 42 41 40 38 35 34 33 33 31 30 30 29 30 30 27 27 27 28 29 27 26 24 25 28 25 31 39 33 32 37 40 47 47 33 21 20 19 17 18 21 25 23 23 28 18 16 24 16 11 11 8 5 4 5 4 1 1 2 2 4 6 7 8 6 4 7 8 5 9 3 6 14 18 23 23 22 22 23 22 23 25 25 26 26 25
48 47 45 44 42 40 38 35 34 33 32 31 30 30 29 30 30 27 25 26 27 27 26 26 25 23 24 22 22 32 36 33 32 38 44 46 37 21 16 18 17 19 20 24 23 17 22 21 18 18 11 11 15 9 3 3 2 1 2 1 1 3 4 5 5 13 9 4 8 8 4 8 2 5 11 14 20 23 24 26 26 26 25 26 27 28 28 27
47 46 45 44 42 40 38 36 34 32 31 30 30 30 29 29 30 25 24 26 26 26 26 24 27 25 16 14 16 22 30 36 36 37 41 43 40 31 22 16 16 19 20 26 25 16 21 23 18 14 9 8 10 6 4 2 1 1 3 3 2 4 3 3 2 12 12 5 5 7 6 4 1 5 9 10 13 16 21 26 27 28 28 28 28 28 29 28
47 45 43 43 42 40 38 36 35 33 31 29 29 29 30 31 29 23 21 24 24 26 27 25 27 27 17 11 13 21 27 32 35 36 38 39 35 33 31 23 20 19 18 23 22 17 24 23 13 10 7 4 4 5 5 5 5 3 2 2 2 3 3 2 3 7 9 5 5 8 9 9 3 2 4 4 7 10 16 22 25 27 28 30 29 29 29 29
47 45 43 42 41 40 38 37 35 33 31 28 27 27 28 28 24 20 20 24 24 22 24 26 24 17 15 18 16 20 29 29 31 36 35 35 30 28 30 24 18 15 12 14 15 17 21 17 9 4 4 4 5 8 8 6 6 5 5 3 3 3 4 5 4 4 7 6 7 6 9 14 9 7 9 8 8 9 13 17 20 23 25 28 29 31 31 32
48 45 44 43 42 40 38 37 35 33 31 28 27 26 24 22 19 20 23 25 24 16 12 20 25 13 5 22 29 20 28 32 28 33 35 33 30 25 26 21 14 10 8 8 10 15 15 8 5 5 7 9 9 11 8 5 9 9 8 6 6 5 4 4 3 4 7 5 6 8 11 15 12 11 17 22 16 13 16 18 20 23 23 24 26 29 31 34
48 46 44 43 42 41 38 36 34 32 30 28 28 25 20 18 10 11 21 27 30 24 18 22 35 34 9 10 32 24 20 31 29 32 37 36 32 24 22 19 11 8 8 7 7 13 13 6 8 11 12 12 10 10 7 6 9 10 8 6 7 5 5 4 2 3 5 4 6 10 12 15 13 10 15 22 16 13 19 21 24 27 27 27 27 28 30 33
48 46 44 43 41 40 37 35 33 31 31 30 32 28 22 24 15 13 24 27 35 40 32 26 32 43 20 1 24 33 21 25 30 35 37 37 32 20 16 16 9 6 9 8 7 10 12 9 14 16 12 12 10 9 7 6 9 9 7 6 6 6 5 4 2 2 4 3 5 5 9 14 12 9 15 15 9 13 22 23 25 28 30 32 32 33 33 32
47 46 45 43 40 38 36 34 33 32 32 31 34 31 29 39 31 21 24 15 27 46 41 32 25 30 29 11 19 35 26 18 22 32 34 34 31 19 15 15 9 6 8 9 6 6 9 13 18 15 9 11 11 10 8 8 9 8 6 5 6 5 1 3 2 2 2 3 3 1 5 13 10 9 14 16 15 21 28 27 29 30 30 32 35 35 34 32
45 45 43 42 40 38 35 34 33 32 34 34 37 39 37 45 34 15 16 6 11 33 38 38 29 21 31 26 19 29 28 18 19 30 36 34 31 26 19 13 10 10 8 9 8 8 10 15 16 14 10 13 12 11 11 7 7 6 7 6 4 3 2 3 2 2 0 1 1 1 5 10 8 6 11 20 26 28 29 29 30 31 31 34 36 34 33 33
43 42 41 41 39 38 36 33 33 32 36 37 39 44 39 39 32 14 14 7 5 15 30 40 35 22 25 26 24 26 26 25 26 34 41 37 32 27 21 16 14 9 8 12 14 14 10 6 13 15 10 14 13 12 12 7 6 5 6 7 4 4 4 1 0 1 2 3 2 2 6 8 7 7 9 14 18 21 25 25 27 33 35 37 36 34 34 34
43 42 39 40 38 38 36 32 35 36 37 38 39 43 38 33 32 20 10 4 4 6 17 30 30 26 24 19 24 27 19 21 28 37 45 44 38 26 17 18 15 8 10 14 14 14 11 7 19 18 11 14 12 11 13 9 6 3 4 6 6 7 5 3 2 3 3 4 3 1 4 7 3 5 10 7 5 11 15 15 22 33 36 36 36 36 38 36
43 42 40 40 39 38 36 32 38 38 35 39 40 41 39 32 30 23 9 0 5 3 6 19 20 22 26 17 21 27 13 10 24 37 43 42 43 32 16 12 9 9 12 11 9 7 8 10 16 16 13 14 11 9 11 10 7 4 5 7 7 7 6 4 3 1 0 3 3 1 3 7 4 4 8 5 4 11 8 7 18 29 32 32 34 39 39 37
42 43 40 41 40 40 39 37 39 38 37 42 41 39 37 31 29 24 10 1 6 6 9 16 16 18 25 19 24 23 6 9 21 32 40 37 38 33 18 9 7 10 10 6 7 4 7 12 12 16 16 13 13 11 11 12 8 3 5 10 9 7 7 6 5 4 2 2 3 2 2 5 7 6 5 2 5 11 10 10 15 22 29 30 31 36 38 39
42 42 40 40 41 43 43 39 38 41 44 42 40 40 34 32 33 22 7 4 6 8 8 12 13 18 22 23 31 19 6 21 19 23 42 39 33 30 17 14 13 12 11 9 9 4 8 15 15 19 16 11 11 9 12 14 6 2 3 8 8 7 6 5 4 3 1 2 3 2 2 2 7 6 2 2 4 10 12 12 12 17 25 29 30 33 34 36
41 41 41 41 40 42 41 37 39 43 42 37 36 37 32 35 31 13 2 5 5 6 7 14 14 16 19 20 28 20 11 19 11 19 38 32 31 28 14 19 19 11 12 11 8 2 4 15 19 18 13 9 6 8 13 13 4 3 7 9 7 5 5 3 3 3 2 2 6 6 5 3 7 7 2 1 4 10 11 9 9 14 20 24 28 31 31 33
41 40 41 41 39 41 39 36 38 39 38 35 32 33 35 33 19 5 7 6 2 4 9 16 16 18 20 15 16 17 10 9 10 23 27 18 25 24 13 21 20 9 9 10 8 4 4 11 17 12 9 7 8 9 9 11 10 8 9 9 6 6 5 3 2 3 1 5 6 9 9 4 5 7 4 4 5 7 8 6 7 11 15 18 21 24 26 27
40 40 40 42 42 42 41 41 38 37 38 35 32 36 34 21 7 6 9 3 3 5 7 12 15 17 20 14 11 14 9 6 14 21 14 9 16 15 12 15 11 7 7 8 7 5 3 7 8 6 15 16 11 7 5 10 16 10 6 6 4 4 3 3 2 1 4 6 3 8 9 6 6 7 2 5 6 4 6 6 7 8 12 14 14 16 17 16
39 40 40 42 43 41 43 45 41 37 37 36 38 39 25 8 5 8 5 3 3 6 6 11 16 15 18 17 13 14 9 6 15 18 11 9 10 11 11 10 9 7 6 7 6 3 3 7 4 4 16 22 13 5 4 4 10 7 6 7 4 2 1 2 2 2 5 4 2 4 5 3 9 10 7 10 11 8 9 11 11 11 15 18 15 12 12 12
38 39 39 41 42 42 43 42 39 37 35 40 42 31 13 6 9 10 6 2 2 4 7 13 18 18 20 18 13 13 10 7 15 18 15 13 10 11 12 13 15 8 3 9 8 4 4 4 6 5 7 17 18 10 5 5 8 9 9 9 7 5 4 6 5 2 3 2 2 2 2 1 5 7 9 12 14 15 13 13 15 16 18 23 22 19 18 18
38 38 39 41 42 43 42 38 39 38 39 45 36 17 10 9 8 13 12 5 2 1 7 13 18 20 20 17 13 14 10 8 16 17 14 16 11 10 10 12 17 8 3 7 5 6 7 4 9 10 5 15 18 15 14 9 9 10 7 7 7 6 4 5 4 3 2 0 1 2 2 3 5 3 5 8 13 19 19 17 17 19 21 22 22 24 25 26
37 37 39 39 41 41 40 39 39 40 44 43 21 7 12 10 6 12 11 5 2 2 7 12 17 18 16 13 12 13 7 5 17 16 12 15 12 12 13 11 17 11 5 8 4 5 7 4 8 9 5 15 17 11 13 12 6 5 4 5 6 4 3 2 1 3 3 1 1 2 3 3 4 8 10 9 12 15 19 21 19 21 24 21 20 21 24 27
35 37 38 39 42 42 41 41 40 43 45 32 10 8 13 9 6 9 8 6 3 4 10 11 12 13 12 10 9 13 7 1 14 15 10 15 13 14 15 12 19 18 10 9 4 4 7 3 8 7 3 13 15 11 14 13 8 3 4 7 5 3 6 4 1 0 3 3 3 3 5 4 5 11 11 10 14 13 13 13 14 19 21 19 20 20 19 21
35 37 38 40 43 42 43 43 40 47 46 23 9 11 11 8 6 5 8 10 5 7 11 9 8 10 12 10 8 15 11 1 8 11 9 12 12 14 15 11 18 23 16 9 2 3 5 2 4 8 5 9 12 15 14 9 7 5 7 8 4 3 3 3 1 2 2 4 3 2 6 3 2 8 5 3 11 14 9 5 8 15 16 17 19 17 17 19
36 37 37 40 42 42 45 42 42 50 39 14 10 12 10 10 5 1 7 11 7 7 9 8 8 9 12 12 10 15 15 5 6 8 10 10 7 14 18 11 16 23 19 12 4 2 5 4 1 4 6 5 5 10 9 3 2 4 6 9 6 2 2 3 3 2 3 5 3 2 3 3 7 8 4 3 8 8 7 5 5 8 12 16 17 16 16 17
36 30 28 36 41 42 43 42 48 48 24 7 11 11 7 8 3 0 7 11 8 7 8 6 5 7 10 13 14 16 17 13 8 5 8 9 5 13 20 13 14 23 20 13 7 4 4 4 1 2 3 6 3 4 8 6 1 2 4 6 3 2 4 4 3 2 3 4 3 2 2 4 8 6 5 11 13 7 7 7 5 8 11 12 14 14 11 9
36 20 14 32 42 40 43 46 47 34 11 7 13 7 6 8 4 1 4 7 6 5 6 5 4 7 9 12 14 13 14 15 12 6 7 8 7 12 20 16 13 21 22 13 7 5 3 3 3 1 1 6 5 7 12 14 8 4 7 8 5 3 2 2 2 2 2 3 3 3 4 5 5 4 9 14 15 11 9 8 7 11 14 12 9 11 11 10
33 11 9 33 41 41 49 42 26 14 5 10 11 4 5 7 3 4 3 3 3 1 2 3 5 8 9 11 11 10 10 11 12 8 6 8 9 8 18 22 17 19 20 11 6 6 4 3 6 4 4 9 10 7 8 13 12 9 8 9 9 6 3 4 6 2 2 3 3 4 6 6 3 4 8 11 11 9 9 8 9 15 21 19 16 17 17 18
25 5 12 37 43 47 49 25 7 7 6 9 10 4 5 5 5 5 3 3 3 2 2 2 2 4 5 8 9 10 10 9 11 11 6 10 11 7 19 32 28 25 21 13 11 9 4 5 6 5 4 5 4 0 1 6 9 5 3 6 7 5 5 8 9 3 2 2 2 2 5 7 3 5 6 7 8 9 10 10 11 16 22 23 22 22 21 18
18 5 18 42 49 52 40 10 2 8 3 7 12 6 3 5 5 4 3 3 2 1 3 1 1 2 2 5 8 11 11 8 11 13 7 10 13 10 20 33 32 26 19 12 12 8 4 5 6 4 1 2 3 3 5 4 5 4 2 5 7 9 10 8 6 3 2 4 3 2 8 6 2 2 3 6 8 11 14 13 14 18 20 20 20 19 16 14
16 12 22 42 54 53 28 4 7 10 2 8 11 5 3 3 3 5 4 3 2 2 3 2 1 1 1 2 5 10 13 8 9 13 8 7 10 9 18 33 31 21 16 14 15 12 7 8 8 6 3 2 3 2 4 3 2 6 8 10 11 14 11 3 2 3 4 8 8 5 11 7 2 2 1 4 6 9 12 11 10 15 17 15 14 12 11 11
15 12 16 34 55 53 21 2 9 10 8 13 12 7 7 3 2 4 4 3 2 2 4 2 1 2 2 3 4 4 8 4 4 11 8 4 5 3 14 31 30 19 19 20 20 14 7 6 10 10 8 8 9 11 11 11 9 7 11 16 18 18 15 9 5 5 9 10 10 10 13 3 3 1 1 3 5 6 8 7 6 10 12 10 7 7 7 10
11 6 5 14 32 36 15 3 8 8 10 15 10 8 11 6 2 3 5 3 2 3 4 1 2 3 2 3 5 4 2 1 2 7 8 5 2 1 14 30 29 23 23 22 20 12 2 4 12 13 14 15 11 11 14 15 12 10 13 19 19 19 19 14 8 8 13 10 9 17 16 2 3 2 2 5 6 6 7 8 9 8 7 6 3 5 8 11
7 4 4 4 8 12 7 5 7 5 9 14 8 7 12 9 4 2 4 1 3 4 4 2 1 3 4 7 6 3 3 2 2 5 10 9 1 1 14 27 26 26 22 18 22 15 2 6 15 16 20 15 2 6 9 13 15 17 19 21 19 17 16 13 11 15 14 8 10 18 12 6 5 5 5 6 6 6 6 8 10 7 4 3 3 6 10 13
5 4 6 6 5 4 6 9 9 7 10 11 5 7 14 12 8 4 1 1 3 3 3 1 2 3 6 10 8 3 5 4 1 2 7 9 4 3 9 16 20 27 21 12 17 13 3 9 15 17 21 12 5 9 13 13 15 17 18 21 20 19 18 16 19 22 15 10 16 14 8 9 10 5 6 8 7 8 7 5 6 5 4 4 3 7 11 13
6 8 5 5 6 6 10 14 15 11 11 9 4 6 15 16 10 4 1 2 3 1 2 3 4 4 5 7 7 6 8 8 6 4 3 6 8 5 6 7 11 21 20 11 11 9 5 9 11 12 15 10 0 6 12 13 13 12 14 17 17 19 22 23 25 27 18 16 20 11 7 13 13 8 9 11 10 10 6 4 5 5 6 6 6 9 11 13
11 12 10 9 7 9 12 13 14 11 8 7 5 4 11 15 12 6 2 2 4 4 3 5 7 8 7 6 6 7 9 8 7 6 3 6 8 5 5 5 4 9 13 10 8 9 9 10 9 8 9 8 3 5 11 14 14 14 14 13 13 16 19 21 23 21 14 17 23 14 8 15 12 10 13 16 15 12 8 9 11 10 10 10 10 13 13 13
16 20 25 19 7 7 11 8 9 11 5 4 5 5 7 12 12 9 4 2 1 4 5 8 9 7 5 5 6 7 8 7 7 7 6 5 5 4 2 2 2 6 10 7 6 9 9 6 6 7 7 7 6 7 11 13 13 14 13 12 15 16 18 21 23 21 18 21 25 19 15 16 9 8 10 16 18 16 12 14 16 17 17 17 18 19 18 16
24 26 32 25 8 4 10 7 8 10 5 3 6 5 5 9 10 9 7 3 3 1 6 11 12 7 4 7 9 10 12 13 11 9 6 4 2 5 2 3 3 2 9 9 5 7 9 6 5 7 9 10 10 10 10 9 7 8 12 17 23 24 24 24 23 22 23 22 20 17 17 13 5 8 9 13 15 17 19 21 23 23 24 25 27 27 25 23
Wind_Direction
224 224 223 222 223 223 223 222 222 223 225 227 223 217 217 221 221 221 224 222 223 228 232 233 225 222 225 230 237 239 245 258 259 262 259 248 246 237 232 230 225 228 220 205 206 208 210 211 205 204 202 194 193 189 183 181 167 160 123 130 221 189 188 187 180 190 164 193 204 185 181 176 181 189 185 190 200 198 187 190 195 201 210 215 216 225 227 213
224 223 223 222 222 222 222 221 221 221 223 225 222 217 217 222 221 221 226 224 222 225 226 233 228 225 226 229 236 240 245 259 264 261 255 245 246 239 234 233 226 226 219 206 203 206 207 206 200 195 189 183 180 176 173 168 159 150 106 161 227 194 200 190 178 188 175 184 186 177 182 185 190 182 178 187 191 184 191 204 210 214 217 221 225 222 223 216
223 223 222 222 221 220 220 220 219 219 221 223 222 217 215 221 223 221 225 225 221 223 223 227 226 223 226 230 235 239 244 259 268 259 249 242 243 236 236 239 230 222 216 207 200 204 209 205 198 190 181 174 169 169 166 161 162 151 126 187 243 213 224 206 188 195 201 201 170 174 184 189 193 181 181 188 176 190 211 210 211 219 219 219 223 219 218 216
221 221 220 220 219 218 218 218 218 218 219 222 222 216 215 220 224 222 224 226 223 223 221 221 223 219 222 228 232 233 241 263 266 258 248 241 244 240 236 237 227 220 215 205 196 202 212 210 199 187 177 167 161 169 170 170 172 168 158 196 229 192 214 220 205 205 209 210 182 175 170 184 188 179 184 172 146 235 233 219 218 225 224 219 220 218 218 215
219 218 218 218 218 217 217 217 217 217 217 220 221 216 214 218 224 224 224 226 224 224 223 217 218 216 215 222 226 221 222 267 267 260 255 246 248 246 234 227 220 219 214 205 197 199 210 211 198 184 176 163 152 165 188 185 170 169 194 206 185 168 191 223 195 185 199 204 188 171 160 184 180 182 194 179 176 230 234 230 231 234 236 234 231 223 219 216
218 217 216 216 216 216 217 216 215 216 216 218 221 217 213 217 223 224 225 226 223 224 224 217 213 208 207 214 222 215 207 223 237 251 255 247 249 240 224 220 218 215 211 205 194 195 209 204 193 182 170 156 164 171 188 186 176 180 221 203 167 171 185 211 180 174 186 186 183 174 174 181 169 194 208 199 216 226 229 248 246 238 237 242 239 228 223 220
217 215 215 214 214 215 215 215 215 214 215 216 219 217 212 216 222 224 225 225 223 223 222 218 211 204 200 202 211 209 212 225 220 149 220 217 222 219 214 219 218 213 209 203 189 195 209 195 188 181 165 154 180 185 175 178 182 183 210 198 169 174 195 201 179 176 178 183 189 180 178 180 177 200 213 217 230 230 233 261 275 246 233 235 233 229 232 229
217 214 214 214 212 213 213 214 214 213 214 215 217 218 213 215 222 223 224 225 222 222 219 216 212 202 196 196 201 199 218 229 228 231 249 134 160 171 200 214 221 218 207 201 189 193 207 193 190 183 170 182 187 182 163 158 183 197 200 191 167 169 191 191 177 167 165 177 183 179 182 193 193 200 223 231 235 235 238 249 267 253 231 233 232 231 233 230
218 214 212 213 212 212 213 214 214 213 213 213 215 217 214 214 221 223 223 225 221 220 219 215 212 198 191 196 196 199 227 230 228 230 240 252 249 250 249 225 226 219 204 199 190 188 205 198 193 190 187 188 182 175 165 160 240 209 189 163 155 152 155 173 181 163 152 168 169 179 201 215 202 210 252 242 240 241 239 241 248 244 232 232 234 234 232 230
217 215 212 212 211 211 212 213 214 213 212 213 215 217 215 214 220 223 222 223 221 219 218 216 213 201 197 198 185 208 232 229 227 229 235 244 250 257 264 275 255 223 207 201 193 189 201 204 197 193 195 181 169 171 173 175 221 200 184 161 150 155 166 175 184 182 171 181 182 186 218 229 195 195 245 244 243 242 237 237 236 235 237 237 238 237 234 234
215 215 213 210 210 212 212 214 214 213 212 212 214 216 215 214 218 223 221 222 220 217 217 216 215 208 207 200 186 213 232 229 228 229 234 240 245 252 255 262 277 251 218 204 199 193 196 210 202 190 193 180 161 154 180 194 205 183 178 176 164 147 207 205 184 193 189 209 215 193 252 256 193 190 234 234 237 242 236 237 235 234 239 242 242 239 237 237
213 214 213 210 210 213 214 214 214 214 213 212 213 215 215 215 218 221 219 221 219 217 217 214 216 215 207 201 203 216 225 229 230 229 234 238 242 250 256 263 271 268 232 209 207 201 197 215 208 195 188 161 152 130 194 197 174 158 162 166 354 42 308 230 200 198 190 207 201 151 309 264 217 209 234 236 237 246 244 240 237 236 239 242 242 240 239 240
212 212 213 211 211 213 214 213 213 214 213 212 213 214 215 215 218 220 218 219 216 216 216 213 217 216 209 207 213 218 220 225 229 227 228 231 237 247 253 262 265 263 239 215 215 210 201 208 211 205 195 161 154 135 173 167 134 138 145 134 97 37 310 224 196 180 181 188 160 138 269 252 228 227 233 239 240 242 245 243 241 239 240 241 242 241 241 240
211 212 212 211 210 212 213 212 213 213 212 212 211 212 215 215 219 220 217 217 215 215 214 215 219 218 222 226 217 217 220 222 224 223 221 221 224 234 235 238 243 244 234 213 215 222 208 206 216 205 196 179 158 125 126 107 106 125 104 67 130 159 277 243 187 158 165 202 161 139 256 250 219 230 233 238 238 238 239 241 243 242 242 241 241 242 242 241
210 210 210 209 210 211 211 211 212 212 211 210 210 211 213 215 220 220 216 216 213 212 213 218 221 218 229 240 224 217 220 220 222 223 223 221 218 215 214 223 229 232 232 211 206 224 214 211 218 199 175 163 149 122 87 36 30 122 177 203 116 192 265 300 183 171 178 199 164 146 257 262 239 233 231 232 233 231 234 239 243 242 242 242 241 241 242 243
208 208 208 207 208 210 210 211 211 211 210 209 209 211 212 217 222 221 218 214 210 210 213 219 222 218 226 249 230 210 211 217 221 223 224 224 221 216 217 232 240 235 232 215 205 212 212 208 207 187 157 149 146 118 96 96 314 248 205 175 142 198 232 320 230 200 193 162 172 195 245 270 309 236 222 227 233 227 230 239 242 241 241 240 241 242 241 243
206 205 205 205 207 210 210 210 210 209 209 208 209 210 213 220 223 223 215 211 212 212 214 220 221 219 226 246 215 194 204 213 216 219 219 222 222 217 222 235 242 240 228 211 200 199 202 197 190 184 170 160 147 129 152 202 203 183 190 161 187 210 190 218 280 235 197 170 204 217 242 243 226 218 189 192 227 224 229 241 247 246 244 242 242 242 242 242
204 203 203 203 206 208 209 209 208 208 208 206 207 208 213 220 223 219 210 209 213 212 218 220 214 214 228 229 210 201 215 215 211 215 214 214 217 213 219 228 233 234 214 193 190 188 190 185 173 173 169 170 171 174 192 203 167 158 170 168 222 229 197 201 237 215 172 191 221 207 243 249 244 258 260 246 223 219 232 244 252 253 251 249 248 247 247 245
202 201 203 203 204 205 205 206 205 206 204 202 203 206 211 216 218 215 210 210 206 197 209 208 202 202 228 221 213 210 218 213 205 208 207 203 203 203 211 218 219 209 178 163 181 187 182 164 157 184 196 193 188 190 193 152 142 159 170 183 210 221 231 211 238 230 167 171 222 212 235 248 246 249 255 253 243 237 247 250 252 256 256 254 253 252 252 250
198 199 200 200 201 202 202 202 202 201 199 198 199 201 203 198 197 215 212 214 212 204 203 203 204 208 217 224 210 201 198 202 196 192 199 200 193 191 198 200 193 176 174 169 174 190 187 175 195 205 199 188 186 188 173 127 139 153 165 196 211 216 249 224 216 248 170 160 226 223 238 249 247 244 250 253 251 244 247 250 250 253 256 255 255 256 255 254
196 197 197 198 199 199 200 199 199 197 195 197 197 195 194 186 178 195 199 210 218 212 211 213 212 211 214 28 202 200 179 183 190 186 196 201 192 188 182 174 163 170 197 181 153 178 187 207 217 208 192 171 175 178 158 139 145 152 168 196 214 215 244 235 209 230 157 167 250 240 254 259 253 255 261 258 250 240 239 242 246 248 252 254 256 258 258 259
194 196 197 198 198 198 199 199 198 195 194 197 199 199 201 197 194 196 191 203 223 216 214 216 221 216 213 204 192 194 178 163 176 179 187 190 184 183 172 164 171 190 197 179 153 158 184 225 219 197 174 161 167 175 167 166 162 160 171 187 218 209 281 293 293 329 149 181 260 300 269 265 255 245 258 255 243 245 243 241 245 247 248 251 254 257 258 260
193 195 197 197 197 196 197 199 196 195 196 199 201 203 206 202 198 197 196 209 242 220 216 216 220 216 209 213 199 184 178 169 163 169 178 176 172 179 174 164 186 191 183 181 181 177 197 229 209 176 165 163 167 175 165 165 171 169 171 178 211 172 144 270 295 345 322 183 257 322 296 279 264 241 251 249 244 249 250 246 248 249 248 251 255 258 259 258
192 193 195 196 195 194 196 196 193 195 199 201 204 204 205 203 199 197 199 215 309 224 220 219 220 221 209 209 207 191 182 183 173 169 177 174 167 175 178 174 184 188 184 187 193 200 220 232 170 163 172 167 167 176 170 171 175 175 180 174 173 158 156 214 302 10 345 348 8 355 309 284 258 242 248 249 246 251 251 246 247 249 250 253 255 255 256 256
191 191 192 192 192 193 192 191 193 197 200 202 207 206 207 205 198 196 189 214 292 227 219 216 219 233 223 204 205 202 190 188 184 173 176 176 170 169 180 182 182 188 186 190 201 212 231 191 156 164 177 167 170 182 181 180 169 180 204 169 150 156 148 106 88 49 29 328 320 13 280 277 276 247 251 264 266 257 250 239 242 247 248 248 248 250 252 252
189 189 189 189 190 189 186 189 196 197 199 205 207 205 208 203 192 191 173 83 254 196 175 194 204 226 221 207 194 197 203 202 186 176 174 179 178 173 173 173 175 196 187 188 210 212 224 203 165 164 168 163 174 188 183 175 163 202 203 152 129 138 139 126 142 129 126 258 297 62 217 267 300 253 244 253 263 264 260 240 244 247 247 244 243 246 248 249
188 188 188 189 188 185 184 191 196 194 198 205 205 204 206 198 188 186 170 275 232 161 144 175 182 198 207 200 180 185 201 157 170 178 176 177 178 173 172 162 161 197 180 171 219 191 183 197 173 164 165 167 185 189 181 170 160 215 188 142 127 130 154 162 165 194 224 261 311 19 159 264 281 259 251 253 260 270 267 254 249 246 247 245 243 245 246 246
188 188 188 188 189 189 190 192 192 194 200 203 200 201 199 190 187 181 174 237 186 138 137 167 174 184 190 185 180 186 158 148 158 180 178 177 173 168 175 176 168 185 174 172 213 199 174 189 176 167 169 181 188 169 164 161 151 229 163 129 133 137 155 158 162 189 15 349 268 251 154 237 273 269 304 357 256 261 259 250 251 248 246 247 246 247 247 246
188 188 189 189 191 194 195 195 196 197 200 201 197 196 191 184 182 170 214 238 150 126 148 161 170 171 166 168 180 195 180 161 161 170 173 177 176 172 178 177 169 171 181 191 213 242 203 191 176 167 171 185 163 132 155 156 138 177 119 89 89 87 85 102 146 156 68 286 229 200 174 214 272 259 197 91 244 249 253 249 252 253 250 251 251 249 248 247
188 189 190 190 190 192 196 201 202 200 198 198 195 189 181 176 173 171 221 220 116 141 144 152 163 156 153 160 180 195 192 166 143 154 167 174 173 171 156 159 161 154 187 208 211 264 289 187 175 167 162 154 120 116 144 139 132 134 102 80 69 58 49 53 73 101 125 254 220 185 179 173 279 267 195 193 233 236 240 246 257 261 259 259 260 258 256 251
188 189 189 191 192 191 193 198 203 202 197 195 189 176 168 165 169 211 204 160 85 156 134 146 158 152 157 167 179 184 185 164 144 149 163 161 161 158 130 143 155 149 183 207 206 257 286 165 174 166 147 132 106 92 85 125 139 127 96 111 96 57 34 25 18 78 212 247 222 175 170 161 232 256 197 229 263 237 215 231 247 259 263 269 274 267 257 247
190 191 191 193 195 195 195 198 199 197 194 191 179 164 156 158 207 211 192 94 145 184 155 152 157 155 163 173 184 178 172 167 153 155 166 160 162 167 155 159 159 152 186 193 184 237 214 165 158 140 146 141 129 99 48 120 148 129 123 145 136 125 173 206 201 209 222 252 351 163 158 171 236 252 258 262 269 248 222 228 242 256 267 280 291 277 253 236
192 193 193 195 197 198 199 200 194 192 191 184 171 158 161 208 196 195 194 144 191 188 157 158 161 159 162 174 188 178 175 178 161 162 167 165 172 178 173 172 166 160 178 174 171 172 193 192 146 114 150 157 150 147 162 172 170 164 159 166 171 165 188 207 199 222 237 259 15 167 180 292 259 268 257 249 259 261 255 247 252 263 270 279 284 277 266 254
194 195 195 197 201 200 201 200 193 192 185 173 165 158 191 210 184 187 194 198 275 189 155 162 159 158 167 181 184 172 177 182 166 164 166 167 174 179 177 177 176 173 94 152 188 173 173 211 167 154 177 176 170 175 176 157 166 184 167 168 185 179 192 205 193 202 210 358 14 201 225 198 188 250 254 236 255 268 275 272 265 268 271 274 276 272 267 263
196 197 197 199 202 201 200 198 195 193 179 165 161 183 196 199 184 185 191 190 246 190 155 161 156 158 176 185 180 178 186 175 166 166 171 173 175 177 176 175 181 180 131 155 192 189 191 237 178 160 157 177 179 176 159 136 154 196 137 160 202 187 152 129 178 179 147 120 225 207 243 215 214 273 276 260 261 259 263 267 267 269 272 273 273 270 265 262
196 197 199 200 201 200 198 196 195 191 178 165 169 200 194 205 191 179 179 165 194 175 147 154 161 163 177 179 177 187 200 180 167 167 174 180 181 181 178 176 180 181 175 168 154 176 198 211 172 157 130 182 175 151 157 158 157 170 163 182 195 126 115 108 222 50 93 207 220 197 249 298 309 283 270 252 257 257 250 253 259 266 270 272 270 268 263 259
195 196 200 200 200 199 196 193 190 183 177 173 194 193 191 209 194 171 168 160 177 172 148 154 175 170 172 173 180 186 183 150 178 176 171 179 183 179 178 182 183 184 184 173 143 185 172 94 178 170 150 185 168 144 164 177 137 142 189 181 130 73 87 101 157 23 59 235 259 220 239 272 266 268 288 222 243 258 261 259 269 266 260 260 264 264 261 264
195 196 200 202 200 196 193 192 186 179 175 179 202 195 191 196 191 154 173 167 166 174 164 166 177 177 174 171 181 187 179 171 206 192 168 176 187 173 174 179 187 192 187 168 169 220 153 89 293 195 152 156 140 138 163 205 113 150 180 161 137 160 201 151 171 192 194 228 274 292 265 234 210 233 285 256 230 243 270 295 304 277 258 254 259 264 267 271
192 191 200 204 199 194 192 190 183 178 178 187 194 197 192 188 198 253 182 171 159 172 184 177 171 182 181 177 179 180 180 183 194 193 176 181 183 173 175 175 182 191 189 175 174 193 169 139 116 287 149 129 109 167 184 198 228 50 124 152 164 193 184 177 172 162 200 219 255 311 311 240 224 206 199 239 247 241 261 286 292 275 270 265 258 254 254 265
186 183 201 200 197 195 189 185 180 178 182 193 186 185 181 188 202 205 189 173 156 171 193 193 187 179 179 187 184 174 182 188 181 189 205 184 165 174 180 178 176 184 189 189 177 157 160 149 136 10 98 142 172 204 193 189 180 147 159 176 198 187 135 174 185 132 155 190 198 251 268 250 242 193 181 222 249 250 246 256 257 257 265 272 256 232 230 263
181 178 196 190 194 193 182 180 182 178 182 191 186 173 177 181 143 134 156 137 126 134 167 171 179 175 176 186 183 168 174 186 183 191 212 186 174 177 182 181 172 171 181 193 187 173 170 159 153 147 161 180 193 204 198 191 183 175 181 182 188 182 135 183 215 182 123 191 178 199 258 270 243 205 200 216 239 252 245 241 246 252 255 260 257 248 257 275
178 192 190 183 188 186 177 176 184 172 186 187 170 141 149 146 120 139 137 95 96 86 92 100 144 159 168 175 174 168 166 176 186 192 209 198 196 195 185 183 173 166 175 185 187 179 130 118 139 137 178 197 195 348 49 178 174 162 179 180 175 173 160 194 218 198 139 220 148 145 269 279 229 198 217 227 238 257 257 245 246 254 256 260 262 263 270 275
181 181 175 178 183 181 176 177 167 168 196 156 140 118 113 128 131 144 133 120 131 85 94 112 177 146 168 177 167 166 168 173 186 193 204 202 207 209 188 182 172 167 176 182 182 176 104 125 142 120 120 24 43 32 33 75 141 141 200 183 169 190 196 202 209 153 153 217 176 231 267 265 240 207 237 254 258 263 263 256 253 260 267 271 271 273 273 265
167 150 164 176 182 182 178 182 168 167 170 142 134 107 78 85 117 143 146 152 151 135 131 139 213 171 164 167 149 163 173 176 188 198 203 203 212 208 184 182 176 171 184 182 175 180 177 168 157 139 137 89 82 65 18 10 192 194 203 190 187 198 190 162 127 129 215 210 170 216 251 242 270 314 255 273 278 270 267 263 255 264 278 285 279 276 268 247
144 144 162 172 178 180 182 205 174 166 155 152 147 142 132 79 40 113 119 131 129 127 133 133 181 130 107 115 83 129 169 162 178 196 204 215 216 176 173 182 180 180 192 185 172 174 175 167 166 159 160 168 178 191 198 200 196 199 198 189 192 193 178 176 192 184 220 207 166 207 239 250 35 70 104 325 305 288 283 288 277 273 290 301 285 265 246 222
148 158 162 159 170 176 176 171 174 167 158 157 152 152 147 127 60 66 76 110 120 88 87 71 158 111 80 128 99 84 147 39 64 183 194 194 210 209 174 179 185 192 189 176 166 162 106 183 188 188 188 187 188 197 193 181 175 186 194 193 197 194 186 192 197 201 218 209 193 221 227 179 85 201 296 309 295 286 281 289 297 299 307 309 272 230 218 204
167 176 173 131 150 165 147 134 170 173 162 160 154 156 151 137 127 70 37 78 165 126 89 14 216 159 165 157 128 108 165 136 58 179 190 184 124 2 173 174 186 193 183 170 169 163 111 199 196 206 211 205 107 80 130 153 179 191 189 193 197 192 192 198 209 224 222 206 231 237 220 202 235 246 265 264 261 268 264 272 292 309 324 299 247 207 202 200
186 155 165 149 127 154 148 147 162 158 151 153 147 154 154 144 135 133 54 75 147 143 104 54 266 222 173 157 142 135 151 139 112 188 188 179 137 73 169 178 188 184 175 176 180 171 182 206 198 209 215 219 38 88 133 161 194 198 192 194 192 186 191 199 217 229 218 206 239 236 177 201 235 239 246 245 233 233 241 262 281 289 285 275 248 212 202 203
149 126 120 107 109 138 141 142 148 143 140 143 132 153 155 149 139 130 98 108 135 190 124 143 200 202 171 157 136 142 169 173 181 199 195 167 155 139 160 183 190 180 175 185 189 178 195 207 202 209 214 221 359 126 151 169 194 204 202 200 190 187 196 201 215 225 216 219 238 225 168 215 220 195 219 237 225 215 223 251 246 245 261 263 249 229 217 214
154 153 135 95 88 118 126 136 144 139 137 137 131 156 155 147 141 127 99 132 161 191 162 145 173 175 172 176 144 152 184 175 157 173 177 158 162 163 169 176 188 186 185 189 187 185 202 206 186 181 207 219 205 169 172 175 190 202 201 196 187 193 206 213 222 225 215 230 241 232 226 240 221 182 204 224 227 220 215 232 237 239 250 261 260 247 235 233
149 152 141 122 99 124 127 133 142 137 143 149 143 158 150 146 146 131 95 34 118 180 169 145 154 157 156 179 177 174 177 151 131 140 139 143 144 105 103 176 174 188 194 193 185 188 199 199 155 155 202 214 189 187 185 176 188 201 195 183 182 193 208 215 220 216 203 219 233 229 235 243 219 164 193 219 232 237 228 224 230 237 240 248 258 256 250 250
134 132 130 120 98 122 128 127 142 142 152 161 143 143 137 145 149 131 112 66 23 152 169 151 146 143 148 184 205 201 179 169 173 172 178 228 204 109 113 297 333 208 195 189 191 195 189 179 156 166 200 214 194 180 174 161 175 206 200 189 190 199 207 212 219 218 209 214 221 220 231 238 171 139 188 213 227 241 243 234 229 233 238 244 252 257 258 259